Roanoke, VA

11:46 AM EST on November 21, 2019 (GMT -0500)
Roanoke Regional-Woodrum

Weather History for KROA - September, 2019

Change the Weather History Date:

Wednesday, September 25, 2019

  Actual Average Record
Temperature  
Mean Temperature 69 °F 64 °F  
Max Temperature 84 °F 75 °F 97 °F (1930)
Min Temperature 53 °F 54 °F 35 °F (1963)
Degree Days  
Heating Degree Days 0 3  
Month to date heating degree days 1 28  
Since 1 July heating degree days 1 29  
Cooling Degree Days 4 2  
Month to date cooling degree days 259 129  
Year to date cooling degree days 1622 1176  
Growing Degree Days 18 (Base 50)    
Moisture  
Dew Point 53 °F    
Average Humidity 63    
Maximum Humidity 83    
Minimum Humidity 42    
Precipitation  
Precipitation 0.00 in 0.12 in 1.16 in (2000)
Month to date precipitation 0.80 3.31  
Year to date precipitation 31.50 31.44  
Snow  
Snow 0.00 in - - ()
Month to date snowfall 0.0  
Since 1 July snowfall T  
Since 1 September snowfall 0.0  
Snow Depth 0.00 in    
Sea Level Pressure  
Sea Level Pressure 29.95 in    
Wind  
Wind Speed 2 mph (South)    
Max Wind Speed 12 mph    
Max Gust Speed 17 mph    
Visibility 10 miles    
Events      
T = Trace of Precipitation, MM = Missing Value Source: NWS Daily Summary

Daily Weather History Graph

Daily Weather History Graph

Search for Another Location

Airport or City:

Astronomy

Sep. 25, 2019 Rise Set
Actual Time 7:10 AM EDT 7:12 PM EDT
Civil Twilight 6:44 AM EDT 7:38 PM EDT
Nautical Twilight 6:13 AM EDT 8:08 PM EDT
Astronomical Twilight 5:42 AM EDT 8:39 PM EDT
Moon 3:08 AM EDT (9/25) 5:37 PM EDT (9/25)
Length of Visible Light 12h 54m
Length of Day
12h 02m
Waning Crescent, 14% of the Moon is Illuminated
Sep 25
Waning Crescent
Sep 28
New
Oct 5
First Quarter
Oct 13
Full
Oct 21
Last Quarter

Hourly Weather History & Observations

Time (EDT) Temp. Heat Index Dew Point Humidity Pressure Visibility Wind Dir Wind Speed Gust Speed Precip Events Conditions
12:54 AM 61.0 °F - 46.9 °F 60% 29.96 in 10.0 mi WSW 3.5 mph - N/A   Clear
1:54 AM 57.0 °F - 46.9 °F 69% 29.96 in 10.0 mi West 4.6 mph - N/A   Clear
2:54 AM 57.0 °F - 46.9 °F 69% 29.97 in 10.0 mi Calm Calm - N/A   Clear
3:54 AM 55.9 °F - 48.0 °F 75% 29.96 in 10.0 mi Calm Calm - N/A   Clear
4:54 AM 54.0 °F - 46.9 °F 77% 29.98 in 10.0 mi Calm Calm - N/A   Clear
5:54 AM 53.1 °F - 48.0 °F 83% 29.99 in 10.0 mi Calm Calm - N/A   Clear
6:54 AM 53.1 °F - 48.9 °F 86% 30.00 in 10.0 mi Calm Calm - N/A   Scattered Clouds
7:54 AM 55.9 °F - 50.0 °F 80% 30.02 in 10.0 mi Calm Calm - N/A   Scattered Clouds
8:54 AM 61.0 °F - 48.9 °F 64% 30.01 in 10.0 mi Variable 3.5 mph - N/A   Partly Cloudy
9:54 AM 64.0 °F - 50.0 °F 60% 30.02 in 10.0 mi Variable 3.5 mph - N/A   Mostly Cloudy
10:54 AM 70.0 °F - 51.1 °F 51% 30.01 in 10.0 mi Variable 4.6 mph - N/A   Partly Cloudy
11:54 AM 73.0 °F - 53.1 °F 49% 29.99 in 10.0 mi Variable 4.6 mph - N/A   Clear
12:54 PM 77.0 °F - 54.0 °F 45% 29.96 in 10.0 mi Variable 4.6 mph - N/A   Partly Cloudy
1:54 PM 80.1 °F 80.1 °F 55.0 °F 42% 29.93 in 10.0 mi Variable 4.6 mph - N/A   Partly Cloudy
2:54 PM 81.0 °F 81.0 °F 57.0 °F 44% 29.90 in 10.0 mi Variable 6.9 mph - N/A   Partly Cloudy
3:54 PM 82.0 °F 82.0 °F 57.9 °F 44% 29.88 in 10.0 mi Calm Calm - N/A   Clear
4:54 PM 81.0 °F 81.1 °F 57.9 °F 45% 29.87 in 10.0 mi South 5.8 mph - N/A   Clear
5:54 PM 82.0 °F 82.0 °F 57.9 °F 44% 29.87 in 10.0 mi SSE 9.2 mph - N/A   Clear
6:54 PM 80.1 °F 80.6 °F 57.9 °F 47% 29.87 in 10.0 mi SSE 8.1 mph - N/A   Clear
7:54 PM 75.0 °F - 59.0 °F 57% 29.88 in 10.0 mi SE 5.8 mph - N/A   Clear
8:54 PM 75.9 °F - 60.1 °F 58% 29.89 in 10.0 mi SE 6.9 mph - N/A   Clear
9:54 PM 71.1 °F - 60.1 °F 68% 29.91 in 10.0 mi NW 3.5 mph - N/A   Clear
10:54 PM 68.0 °F - 60.1 °F 76% 29.92 in 10.0 mi Calm Calm - N/A   Clear
11:54 PM 68.0 °F - 59.0 °F 73% 29.91 in 10.0 mi Calm Calm - N/A   Clear